Location: Oberwangen
(47.4286°N, 8.9679°E)
Time: 15:12:37
(UTC+00:00)

Tsikada Rocket - Pass Details

Date: 20 June 2021
Orbit: 959 x 1008 km, 82.9° (Epoch: 02 August)

Event Time Altitude Azimuth Distance (km) Brightness Sun altitude
Exits shadow 23:34:11 28° 211° (SSW) 1,731 4.8 -19.1°
Maximum altitude 23:37:30 62° 282° (WNW) 1,083 4.2 -19.1°
Drops below altitude 10° 23:43:37 10° 3° (N) 2,704 7.6 -19.0°
Sets 23:46:10 0° 7° (N) 3,653 8.7 -19.0°
